Location: Rio de Janeiro
(22.9068°S, 43.1729°W)
Time: 13:17:58
(UTC-03:00)

Hubble Space Telescope - Pass Details

Date: 05 December 2023
Orbit: 515 x 519 km, 28.5° (Epoch: 02 March)

Event Time Altitude Azimuth Distance (km) Brightness Sun altitude
Exits shadow 02:20:43 25° 135° (SE) 1,095 2.9 -30.7°
Drops below altitude 10° 02:22:46 10° 115° (ESE) 1,766 4.2 -30.4°
Sets 02:25:08 0° 107° (ESE) 2,654 5.2 -30.0°
